GW2873 Weather Reports


Display with metric or nautical units.
time (UTC)temp
F
wind
direction
speed
MPH
gust
MPH
rain 1hr
in
rain 24hr
in
rain mn
in
humidity
%
barometer
mb
20260506201556 54 284 4.0 11.0 0.01 0.57 0.57 92 1006.4
20260506200058 56 171 1.0 9.0 0.00 0.56 0.56 96 1006.0
20260506194555 56 165 2.0 7.0 0.00 0.56 0.56 96 1006.2
20260506193057 56 152 1.0 13.0 0.00 0.56 0.56 96 1006.2
20260506191604 56 0 2.0 9.0 0.00 0.56 0.56 96 1006.3
20260506190058 56 170 2.0 12.0 0.00 0.56 0.56 96 1006.4
20260506184601 56 137 4.0 12.0 0.00 0.56 0.56 95 1006.4
20260506183058 56 310 2.0 14.0 0.01 0.56 0.56 96 1006.5
20260506181600 56 159 1.0 8.0 0.02 0.56 0.56 96 1006.6
20260506180058 56 131 3.0 10.0 0.03 0.56 0.56 96 1006.6
20260506174609 56 194 4.0 12.0 0.04 0.56 0.56 97 1006.6
20260506173058 55 155 2.0 9.0 0.04 0.55 0.55 97 1006.7
20260506171602 55 171 1.0 8.0 0.04 0.54 0.54 97 1006.8
20260506170104 55 171 2.0 11.0 0.06 0.52 0.52 96 1006.9
20260506164559 55 225 2.0 8.0 0.08 0.52 0.52 96 1006.9
20260506163126 55 350 3.0 14.0 0.12 0.51 0.51 96 1007.0
20260506161559 55 107 2.0 11.0 0.14 0.50 0.50 97 1006.9
20260506160056 54 205 2.0 9.0 0.15 0.47 0.47 97 1007.3
20260506154558 54 200 2.0 15.0 0.14 0.44 0.44 96 1007.4
20260506153126 54 5 3.0 10.0 0.10 0.39 0.39 97 1007.3
20260506151556 54 138 2.0 11.0 0.08 0.36 0.36 96 1007.1
20260506150057 54 203 1.0 8.0 0.07 0.32 0.32 97 1007.1
20260506144557 54 157 3.0 9.0 0.08 0.30 0.30 96 1007.1
20260506143056 54 136 2.0 7.0 0.10 0.29 0.29 97 1006.9
20260506141555 54 149 1.0 5.0 0.11 0.27 0.27 97 1007.4
20260506140054 53 143 3.0 10.0 0.13 0.25 0.25 96 1007.5
20260506134556 53 53 1.0 11.0 0.12 0.22 0.22 97 1008.0
20260506133055 52 195 0.0 3.0 0.10 0.19 0.19 96 1008.2
20260506131607 52 0 0.0 1.0 0.08 0.16 0.16 96 1008.5
20260506130057 52 0 0.0 2.0 0.05 0.12 0.12 95 1008.3
20260506124601 53 0 0.0 1.0 0.04 0.10 0.10 96 1007.8
20260506123112 52 0 0.0 1.0 0.05 0.09 0.09 96 1007.9
20260506121612 53 0 0.0 0.0 0.06 0.08 0.08 95 1008.0
20260506120058 52 0 0.0 0.0 0.06 0.07 0.07 95 1008.3
20260506114554 53 0 0.0 0.0 0.05 0.06 0.06 94 1008.2
20260506113056 53 241 0.0 0.0 0.03 0.04 0.04 92 1008.3
20260506111558 53 0 0.0 1.0 0.02 0.02 0.02 91 1008.5
20260506110103 54 0 0.0 2.0 0.01 0.01 0.01 88 1008.3
20260506104606 55 242 0.0 2.0 0.01 0.01 0.01 84 1008.0
20260506103103 56 0 0.0 2.0 0.01 0.01 0.01 79 1007.9
20260506101625 57 136 0.0 2.0 0.00 0.00 0.00 75 1007.8
20260506100059 58 184 1.0 7.0 0.00 0.00 0.00 70 1007.8
20260506094600 59 0 1.0 3.0 0.00 0.00 0.00 67 1007.8
20260506093100 59 207 1.0 6.0 0.00 0.00 0.00 65 1007.6
20260506091558 59 0 0.0 4.0 0.00 0.00 0.00 64 1007.8
20260506090109 59 0 1.0 7.0 0.00 0.00 0.00 63 1007.8
20260506084620 59 221 1.0 4.0 0.00 0.00 0.00 62 1007.9
20260506083058 60 156 0.0 6.0 0.00 0.00 0.00 62 1007.9
20260506081613 60 192 1.0 5.0 0.00 0.00 0.00 61 1007.7
20260506073101 59 155 2.0 7.0 0.00 0.00 0.00 63 1008.1
20260506071555 59 195 2.0 7.0 0.00 0.00 0.00 64 1008.3
20260506061559 52 0 0.0 0.0 0.00 0.00 0.00 96 1008.7
20260506050117 53 0 0.0 2.0 0.00 0.00 0.00 93 1009.4
20260506044555 53 0 0.0 2.0 0.00 0.00 0.00 90 1009.5
20260506043058 54 0 0.0 1.0 0.00 0.00 0.00 90 1009.6
20260506041604 55 296 0.0 1.0 0.00 0.00 0.00 88 1009.8
20260506040058 56 0 0.0 0.0 0.00 0.00 0.00 86 1009.8
20260506034556 56 0 0.0 3.0 0.00 0.00 0.00 83 1009.8
20260506033057 57 0 0.0 2.0 0.00 0.00 0.00 79 1009.7
20260506031554 57 263 0.0 2.0 0.00 0.00 0.00 79 1009.6
20260506030057 58 232 0.0 2.0 0.00 0.00 0.00 78 1009.6
20260506024603 59 0 1.0 3.0 0.00 0.00 0.00 78 1009.5
20260506023108 60 304 0.0 3.0 0.00 0.00 0.00 76 1009.6
20260506021557 61 304 0.0 3.0 0.00 0.00 0.00 73 1009.6
20260506014603 59 262 0.0 2.0 0.00 0.00 0.00 76 1009.4
20260506013103 60 0 0.0 2.0 0.00 0.00 0.00 75 1009.4
20260506011605 60 0 0.0 0.0 0.00 0.00 0.00 76 1009.1
20260506010057 60 0 0.0 1.0 0.00 0.00 0.00 76 1009.0
20260506004601 60 0 0.0 1.0 0.00 0.00 0.00 78 1008.9
20260506003058 60 0 0.0 2.0 0.00 0.00 0.00 80 1008.9
20260506001559 60 0 0.0 2.0 0.00 0.00 0.00 81 1009.1
20260505234555 61 0 0.0 1.0 0.00 0.00 0.00 81 1008.7
20260505233058 61 0 0.0 1.0 0.00 0.00 0.00 79 1008.8
20260505231557 62 0 0.0 2.0 0.00 0.00 0.00 79 1008.6
20260505230120 63 162 3.0 10.0 0.00 0.00 0.00 75 1008.6
20260505224555 62 136 0.0 3.0 0.00 0.00 0.00 72 1008.0
20260505223059 62 0 0.0 2.0 0.00 0.00 0.00 78 1008.1
20260505221602 61 0 0.0 3.0 0.00 0.00 0.00 77 1007.9
20260505220104 62 194 0.0 4.0 0.00 0.00 0.00 76 1008.0
20260505214557 63 178 1.0 3.0 0.00 0.00 0.00 77 1008.0
20260505213056 64 309 2.0 5.0 0.00 0.00 0.00 76 1007.9
20260505211604 65 221 2.0 6.0 0.00 0.00 0.00 69 1007.9
20260505210106 65 33 0.0 3.0 0.00 0.00 0.00 70 1007.6
20260505204603 66 57 0.0 5.0 0.00 0.00 0.00 71 1007.7
20260505203107 70 153 4.0 11.0 0.00 0.00 0.00 46 1007.3